TIME,DELAY(SENSOR),PRES,OXYGEN,RAWTEMP,T(OPTODE),TCPHASE,FLUOR,BETA(BETA700),BETA(BETA412),BETA(BETA440),CDOM,C(CSC),ED(ED412.40),ED(ED444.00),ED(ED489.70),ED(ED554.30),LU(LU411.80),LU(LU443.40),LU(LU489.60),LU(LU554.10),COMP,TILTX,TILTY,CHECK
1361417790,5805,894.0499877929688000,44.9623603820800800,660.5712280273438000,4.6091670989990230,54.2680091857910160,53,101,89,79,80,14922,2147756096,2147423881,2148012699,2147874240,2147640914,2147054729,2148257810,2147196992,3398,4,13,8616
1361421386,5805,957.4600219726562000,47.7191696166992200,669.8585815429688000,4.3028678894042970,53.9874305725097660,53,100,88,80,80,14924,2147757138,2147426834,2148012352,2147871853,2147642294,2147054381,2148257316,2147196306,3334,4,13,23860
1361424986,5810,988.0300292968750000,47.9265594482421900,669.7681884765625000,4.3058528900146480,53.9585304260253900,53,100,84,79,80,14917,2147758537,2147419794,2148014336,2147873691,2147644352,2147057051,2148259035,2147197586,3404,4,13,15003
1361428586,5808,988.9899902343750000,47.2875404357910160,669.0029296875000000,4.3311309814453125,54.0345191955566400,52,100,86,80,80,14923,2147756187,2147425325,2148013056,2147873974,2147643520,2147058934,2148259657,2147195968,3560,4,14,62377
1361432186,5810,982.1099853515625000,48.4936218261718750,671.3757934570312000,4.2527389526367190,53.8950500488281250,52,99,88,78,81,14922,2147758537,2147426880,2148012242,2147874194,2147643337,2147057142,2148258322,2147194203,2994,4,13,58833
1361435786,5807,992.7899780273438000,48.5287399291992200,671.0571289062500000,4.2632708549499510,53.8913383483886700,53,97,85,79,80,14921,2147757915,2147425682,2148014162,2147874258,2147641828,2147054537,2148260269,2147196306,2849,4,13,35525
1361439386,5811,998.0000000000000000,48.2721786499023440,670.5977783203125000,4.2784481048583980,53.9179382324218750,52,99,87,79,80,14920,2147756790,2147422144,2148014884,2147871542,2147642578,2147055798,2148260242,2147195785,103,4,13,57808
1361442986,5810,1000.2399902343750000,47.9532394409179700,670.2863769531250000,4.2887339591979980,53.9581909179687500,51,98,86,79,80,14923,2147754852,2147421860,2148012608,2147873014,2147643748,2147052361,2148259977,2147196553,281,4,13,46203
1361446586,5806,1000.3699951171875000,47.5566902160644500,670.2968750000000000,4.2883892059326170,54.0129013061523440,53,98,85,78,80,14920,2147756937,2147421220,2148012617,2147874971,2147640932,2147053842,2148259712,2147196534,232,4,13,44003
1361450186,5810,987.5200195312500000,47.7222290039062500,670.9271850585938000,4.2675647735595700,54.0024414062500000,52,101,89,78,80,14922,2147757348,2147424228,2148012251,2147871963,2147642660,2147054537,2148257536,2147197833,182,4,13,57994
1361453786,5808,992.0000000000000000,48.3522300720214840,671.8555297851562000,4.2368831634521480,53.9218711853027340,52,99,88,78,80,14923,2147759341,2147422354,2148010413,2147876178,2147641280,2147053266,2148261293,2147196754,2701,4,14,37610
1361457386,5810,986.2999877929688000,48.4486007690429700,672.4948730468750000,4.2157440185546875,53.9144401550293000,53,98,86,78,80,14919,2147758418,2147425152,2148012205,2147875190,2147641069,2147054729,2148266944,2147196315,544,4,13,58478
1361460986,5806,993.6900024414062000,48.3722686767578100,671.6079711914062000,4.2450637817382810,53.9130592346191400,52,99,85,78,80,14920,2147759250,2147423268,2148012754,2147873389,2147644498,2147052516,2148261138,2147195602,3518,4,13,40818
1361464586,5808,980.7999877929688000,48.2017593383789060,672.0120239257812000,4.2317118644714355,53.9458312988281250,52,99,85,80,80,14923,2147758052,2147425270,2148011675,2147874038,2147642532,2147055542,2148259977,2147195830,1368,4,13,51366
1361468186,5755,994.1099853515625000,48.8503494262695300,672.6760864257812000,4.2097530364990230,53.8644981384277340,52,99,88,78,82,14922,2147755318,2147422811,2148011437,2147874560,2147643556,2147062098,2148261275,2147196032,113,4,13,15145
1361471786,5807,990.6300048828125000,48.5093688964843750,672.4686889648438000,4.2166137695312500,53.9104194641113300,53,98,83,79,79,14918,2147759003,2147425435,2148010441,2147871725,2147642011,2147060662,2148262948,2147194925,3169,4,13,20782
1361475386,5807,993.2500000000000000,47.8924903869628900,672.7155151367188000,4.2084522247314450,53.9996414184570300,52,100,89,79,79,14916,2147753289,2147420224,2148011785,2147874861,2147644278,2147052516,2148262601,2147191981,66,4,13,61057
1361478986,5807,989.5800170898438000,48.2066001892089840,673.3032226562500000,4.1890177726745605,53.9584693908691400,52,100,87,79,81,14917,2147757312,2147424411,2148013412,2147872073,2147642066,2147053787,2148265636,2147196864,146,4,13,13366
1361482586,5809,984.2199707031250000,48.9028396606445300,673.4528808593750000,4.1840648651123050,53.8671989440918000,53,100,90,79,80,14919,2147757705,2147425892,2148014171,2147875529,2147641444,2147053110,2148262756,2147194916,873,4,13,37348
1361486186,5809,994.2299804687500000,48.6924591064453100,673.7733764648438000,4.1734662055969240,53.8961791992187500,53,98,88,79,79,14915,2147758619,2147424045,2148010587,2147875291,2147640923,2147059318,2148262976,2147196096,201,4,13,5743
1361489786,5811,993.1400146484375000,48.7784385681152340,673.4686279296875000,4.1835498809814450,53.8862991333007800,52,98,88,78,79,14918,2147756269,2147421504,2148010788,2147876461,2147642614,2147057069,2148266578,2147198701,32,4,13,23408
1361493386,5808,994.4099731445312000,48.7599182128906250,673.4497070312500000,4.1841740608215330,53.8857002258300800,52,98,86,80,79,14903,2147759186,2147425289,2148012160,2147875227,2147644105,2147051574,2148260251,2147195904,147,4,13,18280
1361496986,5811,997.4799804687500000,48.6530189514160160,674.0256958007812000,4.1651229858398440,53.9099197387695300,52,97,86,80,81,14919,2147758811,2147421248,2148013184,2147873280,2147647497,2147057481,2148260086,2147196361,603,4,13,23460
1361500586,5807,1001.8699951171875000,48.6105918884277340,672.7230834960938000,4.2081999778747560,53.9003715515136700,52,100,83,79,80,14914,2147758820,2147425426,2148011739,2147872064,2147642678,2147060434,2148258852,2147197010,250,4,13,23953
1361504186,5806,996.9500122070312000,48.2609710693359400,672.8226928710938000,4.2049078941345215,53.9442710876464840,52,98,86,79,79,14918,2147756845,2147424100,2148014034,2147873974,2147639488,2147063506,2148258944,2147197586,274,4,13,31651
1361507786,5806,998.6799926757812000,48.4571113586425800,672.1693115234375000,4.2265110015869140,53.9104385375976560,52,99,86,80,80,14918,2147755309,2147424658,2148010477,2147873097,2147640859,2147061412,2148260141,2147200073,3400,4,13,18849
1361511386,5806,999.4099731445312000,48.0474891662597660,672.2971801757812000,4.2222809791564940,53.9690208435058600,52,102,88,79,80,14915,2147752310,2147423981,2148010386,2147875026,2147646537,2147054244,2148262381,2147197312,169,4,13,37663
1361514986,5806,1007.6599731445312000,48.1926803588867200,672.2672729492188000,4.2232718467712400,53.9529190063476560,53,97,87,79,81,14903,2147754852,2147425152,2148014098,2147871186,2147642121,2147056466,2148263625,2147195172,149,4,13,60533
1361518586,5809,1003.4600219726562000,47.8309898376464840,672.4556884765625000,4.2170410156250000,54.0057601928710940,53,99,88,78,80,14916,2147756937,2147424713,2148009636,2147875538,2147643081,2147057563,2148262409,2147199003,30,4,13,60275
1361522186,5807,1011.2299804687500000,48.3775100708007800,671.7482910156250000,4.2404270172119140,53.9206581115722660,53,100,86,79,79,14914,2147755565,2147424713,2148009691,2147871259,2147642139,2147057069,2148258322,2147196918,230,4,13,8748
1361525786,5809,1005.1699829101562000,47.2442398071289060,671.4630737304688000,4.2498531341552730,54.0756988525390600,52,101,88,79,80,14914,2147755968,2147424640,2148012452,2147871981,2147642404,2147059620,2148260918,2147198665,541,4,13,3618
1361529386,5807,993.8800048828125000,47.8578605651855500,672.3389282226562000,4.2209048271179200,53.9982681274414060,52,101,87,78,80,14912,2147757668,2147422875,2148013083,2147874368,2147640804,2147054802,2148258889,2147196187,253,4,13,17858
1361532986,5809,996.9299926757812000,49.1698188781738300,673.7921142578125000,4.1728501319885250,53.8327102661132800,52,97,88,78,83,14917,2147757942,2147423981,2148013312,2147874002,2147642560,2147058121,2148259547,2147199094,3157,4,13,51427
1361536586,5807,995.0200195312500000,48.7524604797363300,673.6638793945312000,4.1770901679992680,53.8870391845703100,52,99,86,79,80,14915,2147756681,2147424877,2148011300,2147874038,2147644635,2147056512,2148265252,2147198061,3111,4,13,64913
1361540186,5807,1001.3300170898438000,48.9003181457519500,673.4072875976562000,4.1855769157409670,53.8668899536132800,52,100,88,78,80,14915,2147757001,2147424612,2148010880,2147873755,2147645092,2147055277,2148257508,2147195538,3471,4,13,29523
1361543786,5805,1011.3200073242188000,48.6191596984863300,672.5083007812500000,4.2153029441833500,53.8945083618164060,52,99,85,78,80,14909,2147759168,2147426989,2148011126,2147872091,2147643520,2147051035,2148260214,2147197577,3476,4,13,24480
1361547386,5809,1002.7800292968750000,48.9479598999023440,673.3875122070312000,4.1862320899963380,53.8557586669921900,52,98,85,79,79,14912,2147755538,2147423972,2148011684,2147870912,2147645860,2147057371,2148259117,2147192448,3457,4,13,35481
1361550986,5805,999.6500244140625000,47.9767608642578100,673.1229858398438000,4.1949768066406250,53.9884414672851560,52,100,86,78,79,14909,2147756114,2147423259,2148012717,2147872640,2147640384,2147058532,2148264466,2147200146,3305,4,13,30535
1361554586,5809,1006.5800170898438000,47.9507598876953100,671.5855102539062000,4.2458081245422360,53.9721488952636700,52,99,85,78,80,14911,2147759195,2147427099,2148011382,2147876370,2147641929,2147052854,2148260032,2147196480,2761,4,13,64365
1361558186,5808,1003.2199707031250000,47.7089500427246100,672.4617919921875000,4.2168412208557130,54.0176010131835940,52,99,87,79,79,14908,2147762468,2147425408,2148012836,2147870884,2147642934,2147056859,2148267574,2147193371,32,4,13,54757
1361561786,5811,1001.3300170898438000,47.4548683166503900,672.3682861328125000,4.2199311256408690,54.0548095703125000,52,99,91,79,80,14912,2147756982,2147423277,2148012544,2147869933,2147643529,2147057152,2148257993,2147195739,233,4,13,24813
1361563256,5809,994.2100219726562000,47.8544197082519500,673.1256713867188000,4.1948871612548830,54.0077705383300800,53,97,85,78,80,14907,2147756745,2147422208,2148012763,2147874249,2147642715,2147056832,2148256813,2147199296,3276,4,13,56545
